STARLINK-36708, 67713

Orbit data source: Space-Track

STARLINK-36708, 67713 is a payload satellite owned by SpaceX/Seattle (US) in SSO that was launched on Sat, 07 Feb 2026 UTC via an FALCON 9 launch vehicle from the Air Force Western Test Range (AFWTR). Payload-class satellites include a variety of spacecraft equipped with specific instruments for various scientific and technological missions. These include communications satellites like Starlink; space stations such as the ISS; scientific satellites like the Hubble; Earth observation satellites from companies like Planet Labs, Umbra, and HawkEye 360; GPS; miniature CubeSats for education and research; and military/defense satellites.

Loading next visibility...
Identifier
67713, 2026-025W
Orbit
SSO
Country
Flag of USUS
Related business
Manufacturer
SpaceX/Seattle
Mission
Operational spacecraft
Bus & Motor
STARLINK V2MO, Unknown motor
Mass
575 kg wet, ~530 kg dry
Launch date (UTC)
2026-02-07 (2 months ago)
Launch vehicle
FALCON 9
Launch site
Air Force Western Test Range (AFWTR)
Object type
Payload
Rocket body
Debris
Shape & HBR
Unknown shape, 17.7 m
Radar Cross Section
RCS unknown

Expand to show TLE details & history
Last TLE update: 19 hours ago

TLE from 19 hours ago
0 STARLINK-36708
1 67713U 26025W   26103.57601663  .00017527  00000-0  54388-3 0  9998
2 67713  97.2865 214.9281 0000593 113.9862 246.1443 15.33450969 11301
Epoch: 2026-04-13T13:49Z
TLE epoch observation values (Epoch: 2026-04-13T13:49:27.836Z)
Latitude
-0.00003°
Longitude
165.79748°
Altitude
468.802 km
Speed
7.632 km/s
True Right ascension
14h 19m 42s
True Declination
0° 00' 00"
Sunlit
Object was in full shadow at epoch
Visualization orbit readout
Latitude
Unknown
Longitude
Unknown
Altitude
Unknown
Speed
Unknown
Apparent Right ascension
Unknown
Apparent Declination
Unknown
Sunlit
N/A
Visualization observer readout
Local Sidereal Time
15:12:20
Azimuth
Unknown
Elevation
Unknown
Doppler factor
Unknown
Orbital elements
Apogee altitude
462.874 km
Perigee altitude
462.063 km
Semi-major axis
6,840.605 km
Eccentricity
0.00006
Inclination
97.2865°
RAAN
214.9281°
Arg. of periapsis
113.9862°
True anomaly
246.13809°
Mean anomaly
246.1443°
Eccentric anomaly
246.14119°
Mean motion
3.8362 °/min
Orbital period
93.84 mins
BSTAR
0.00054388
Loading maneuver chart data...
Computing Atmospheric mass density...
Loading historical data...
Loading historical data...
Loading historical data...
Loading historical data...
Loading historical data...
Loading historical data...
Loading historical data...

Documentation

Showing up to 5 results
|